Location: White Mills Observatory
(37.5374°N, 86.0303°W)
Time: 16:21:23
(UTC-05:00)

Amateur Radio Satellites - All Passes

Search period start: 23 January 2018 15:51
Search period end: 24 January 2018 15:51
Location: White Mills Observatory, 37.5374°N, 86.0303°W

Satellite Date Start Highest point End Downlink Frequencies (MHz)
Time Altitude Azimuth
DX 1 23 Jan 15:56:44 15:59:29 17° 294° (WNW) 16:02:14 434.975-435.025
M-CUBED/EXP-1 PRIME 23 Jan 15:57:39 16:01:17 27° 67° (ENE) 16:04:43 437.505
AO-7 23 Jan 16:07:37 16:15:34 48° 259° (WSW) 16:23:36 .
DOVE 4 23 Jan 16:09:12 16:12:55 30° 72° (ENE) 16:16:33 437.250
ITUPSAT 1 23 Jan 16:29:02 16:33:53 86° 283° (WNW) 16:38:41 437.325
MOZHAYETS 4 23 Jan 16:32:03 16:36:21 39° 288° (WNW) 16:40:37
NO-84 23 Jan 16:36:06 16:39:19 66° 316° (NW) 16:42:18 435.350 FM
CUBESAT XI-V 23 Jan 16:42:44 16:47:18 63° 101° (E) 16:51:50 437.345
HO-68 23 Jan 16:57:55 17:00:51 13° 54° (NE) 17:03:47 435.675
XW-2D 23 Jan 17:00:46 17:02:47 14° 67° (ENE) 17:04:47 145.860 - 145.880
BEESAT 23 Jan 17:07:04 17:11:23 34° 290° (WNW) 17:15:40 436.000
XW-2B 23 Jan 17:17:29 17:20:23 21° 70° (ENE) 17:23:18 145.730 - 145.750
PCSat 23 Jan 17:20:02 17:21:21 11° 42° (NE) 17:22:40 145.827
ITAMSAT 1 23 Jan 17:21:33 17:23:26 12° 269° (W) 17:25:19 435.822/435.867
M-CUBED/EXP-1 PRIME 23 Jan 17:32:07 17:35:34 23° 258° (WSW) 17:38:52 437.505
CUTE-I 23 Jan 17:33:30 17:38:14 34° 69° (ENE) 17:42:59 437.470
KKS-1 23 Jan 17:38:58 17:43:00 33° 98° (E) 17:47:01 437.445
XW-2C 23 Jan 17:47:06 17:50:48 51° 75° (ENE) 17:54:31 145.795 - 145.815
STARS 23 Jan 17:47:18 17:49:51 15° 93° (E) 17:52:23 437.465
DOVE 4 23 Jan 17:47:36 17:50:38 19° 265° (W) 17:53:36 437.250
LilacSat-2 23 Jan 17:48:46 17:52:34 60° 76° (ENE) 17:56:22 437.200
RS-15 23 Jan 17:49:41 18:01:23 86° 242° (WSW) 18:12:27 29.354- 29.394
CUTE 1.7 + AOD 2 23 Jan 17:54:09 17:56:57 17° 68° (ENE) 17:59:45 437.475
KAITUO 1B 23 Jan 18:13:07 18:16:52 78° 77° (ENE) 18:20:37 145.475/437.950
BEESAT 3 23 Jan 18:15:38 18:19:28 51° 57° (ENE) 18:23:12 437.485
NUDT-PHONESAT 23 Jan 18:18:19 18:22:04 85° 77° (ENE) 18:25:48 437.300
XW-2F 23 Jan 18:20:19 18:24:05 61° 259° (W) 18:27:51 145.980 - 146.000
CUBESAT XI-V 23 Jan 18:22:18 18:24:05 12° 296° (WNW) 18:25:53 437.345
XW-2D 23 Jan 18:33:03 18:36:35 36° 262° (W) 18:40:09 145.860 - 145.880
UWE-3 23 Jan 18:36:35 18:39:44 19° 67° (ENE) 18:42:56 435.000/436.395/437.385
CUBEBUG 2 23 Jan 18:36:49 18:40:47 34° 71° (ENE) 18:44:52 437.445
HO-68 23 Jan 18:40:14 18:47:21 74° 72° (ENE) 18:54:29 435.675
AAUSAT CUBESAT 2 23 Jan 18:43:31 18:45:48 15° 67° (ENE) 18:48:06 437.432
XW-2B 23 Jan 18:51:20 18:54:25 23° 264° (W) 18:57:29 145.730 - 145.750
ZACube-1 23 Jan 18:53:49 18:56:24 15° 66° (ENE) 18:59:01 437.345
AO-73 23 Jan 18:58:40 19:01:12 15° 65° (ENE) 19:03:46 145.935
PCSat 23 Jan 19:00:21 19:05:46 67° 61° (ENE) 19:11:09 145.827
SEEDS 23 Jan 19:09:23 19:13:34 76° 78° (ENE) 19:17:47 437.485
AO-85 23 Jan 19:10:53 19:13:03 13° 43° (NE) 19:15:15 145.980
BEESAT 2 23 Jan 19:11:11 19:15:07 52° 57° (ENE) 19:18:58 435.950
CUTE-I 23 Jan 19:13:49 19:18:16 27° 264° (W) 19:22:44 437.470
KKS-1 23 Jan 19:15:59 19:19:19 21° 293° (WNW) 19:22:39 437.445
STRAND 1 23 Jan 19:17:42 19:21:33 21° 94° (E) 19:25:25 437.568
STARS 23 Jan 19:22:09 19:26:21 44° 288° (WNW) 19:30:33 437.465
XW-2A 23 Jan 19:24:01 19:27:05 31° 73° (ENE) 19:30:08 145.665 - 145.685
Oscar 11 23 Jan 19:27:53 19:30:54 19° 68° (ENE) 19:33:55 .
CUTE 1.7 + AOD 2 23 Jan 19:28:32 19:32:29 36° 263° (W) 19:36:25 437.475
nSIGHT-1 23 Jan 19:36:18 19:39:25 67° 138° (SE) 19:42:33 .
BEESAT 3 23 Jan 19:55:25 19:56:28 11° 252° (WSW) 19:57:30 437.485
ISS 23 Jan 20:02:19 20:05:34 83° 137° (SE) 20:08:51 437.550
RS-15 23 Jan 20:05:03 20:11:51 18° 262° (W) 20:18:31 29.354- 29.394
UWE-3 23 Jan 20:11:45 20:15:51 37° 263° (W) 20:20:05 435.000/436.395/437.385
CUBEBUG 2 23 Jan 20:14:15 20:17:27 20° 267° (W) 20:20:44 437.445
AAUSAT CUBESAT 2 23 Jan 20:16:59 20:20:52 40° 262° (W) 20:24:46 437.432
DELFI C3 23 Jan 20:25:40 20:27:23 13° 66° (ENE) 20:29:06 145.870
ZACube-1 23 Jan 20:27:55 20:32:13 48° 261° (W) 20:36:38 437.345
FO-29 23 Jan 20:30:56 20:35:54 45° 100° (E) 20:41:02 435.910
HO-68 23 Jan 20:30:58 20:35:38 18° 268° (W) 20:40:19 435.675
AO-73 23 Jan 20:32:39 20:36:57 49° 261° (W) 20:41:22 145.935
PCSat 23 Jan 20:45:40 20:48:31 14° 257° (WSW) 20:51:21 145.827
AO-85 23 Jan 20:49:08 20:54:11 79° 59° (ENE) 20:59:29 145.980
BEESAT 2 23 Jan 20:51:06 20:52:18 11° 252° (WSW) 20:53:30 435.950
STRAND 1 23 Jan 20:56:02 21:00:51 41° 289° (WNW) 21:05:39 437.568
XW-2A 23 Jan 20:58:32 20:59:50 12° 267° (W) 21:01:08 145.665 - 145.685
Oscar 11 23 Jan 21:02:45 21:06:44 35° 263° (W) 21:10:45 .
nSIGHT-1 23 Jan 21:13:47 21:15:52 16° 335° (NNW) 21:17:56 .
UNISAT 6 23 Jan 21:25:53 21:28:56 17° 92° (E) 21:31:56 437.425
ISS 23 Jan 21:40:23 21:42:25 15° 336° (NNW) 21:44:26 437.550
Max Valier Satellite 23 Jan 21:56:16 21:59:59 70° 259° (W) 22:03:43 145.860
DELFI C3 23 Jan 21:58:00 22:01:42 42° 261° (W) 22:05:26 145.870
EO-88 23 Jan 22:07:12 22:10:50 81° 258° (WSW) 22:14:30 145.990 - 145.960
ESTCUBE 1 23 Jan 22:12:35 22:14:33 13° 64° (ENE) 22:16:32 437.505/2401.250
YUBILEINY 23 Jan 22:16:41 22:23:57 30° 84° (E) 22:31:10 435.215
FO-29 23 Jan 22:17:08 22:20:42 19° 295° (WNW) 22:24:20 435.910
AO-85 23 Jan 22:32:00 22:34:04 12° 253° (WSW) 22:36:10 145.980
TIGRISAT 23 Jan 22:44:55 22:49:37 73° 285° (WNW) 22:54:15 435.000
UNISAT 6 23 Jan 23:01:20 23:05:48 44° 288° (WNW) 23:10:13 437.425
NO-84 23 Jan 23:10:18 23:12:36 22° 38° (NE) 23:14:58 435.350 FM
LO-87 23 Jan 23:15:52 23:19:25 83° 76° (ENE) 23:23:01 145.935 - 145.965
VELOX 1 23 Jan 23:34:06 23:35:41 12° 64° (ENE) 23:37:16 145.980
EO-79 23 Jan 23:44:24 23:46:52 15° 93° (E) 23:49:18 145.935-145.965
O/OREOS (USA 219) 23 Jan 23:45:16 23:49:15 31° 104° (ESE) 23:53:12 437.305
ESTCUBE 1 23 Jan 23:46:21 23:50:49 59° 259° (W) 23:55:18 437.505/2401.250
PRISM 23 Jan 23:47:12 23:51:14 61° 286° (WNW) 23:55:16 437.425
YUBILEINY 24 Jan 00:11:37 00:20:12 55° 282° (WNW) 00:28:48 435.215
AIST 2D 24 Jan 00:15:33 00:18:54 48° 285° (WNW) 00:22:14 435.315
POLYITAN 1 24 Jan 00:19:03 00:23:04 37° 98° (E) 00:27:02 437.675
NANOSAT C BR1 24 Jan 00:31:19 00:35:26 46° 99° (E) 00:39:30 145.865
SPROUT 24 Jan 00:37:59 00:42:12 68° 259° (W) 00:46:27 437.525
NO-84 24 Jan 00:47:24 00:49:40 21° 232° (SW) 00:52:01 435.350 FM
QB50P2 24 Jan 00:48:52 00:53:11 82° 282° (WNW) 00:57:26 145.880/145.840
ISS 24 Jan 00:57:03 00:57:53 11° 17° (NNE) 00:58:41 437.550
UKube-1 24 Jan 00:57:17 00:58:03 10° 63° (ENE) 00:58:50 .
Oscar 19 24 Jan 01:02:38 01:04:46 12° 91° (E) 01:06:52 437.125/150
50 SAT 24 Jan 01:05:33 01:07:05 13° 69° (ENE) 01:08:38 437.505
VELOX 1 24 Jan 01:07:16 01:11:35 60° 259° (W) 01:15:55 145.980
DUCHIFAT 1 24 Jan 01:12:56 01:17:09 65° 285° (WNW) 01:21:20 145.980
DX 1 24 Jan 01:13:17 01:16:56 27° 69° (ENE) 01:20:36 434.975-435.025
Gurwin Techsat 1B 24 Jan 01:15:28 01:17:50 13° 91° (E) 01:20:12 435.225
EO-79 24 Jan 01:18:44 01:22:46 41° 287° (WNW) 01:26:46 145.935-145.965
O/OREOS (USA 219) 24 Jan 01:25:06 01:28:38 22° 300° (WNW) 01:32:12 437.305
POLYITAN 1 24 Jan 01:55:43 01:58:30 17° 293° (WNW) 02:01:17 437.675
MOZHAYETS 4 24 Jan 01:56:36 01:59:09 15° 65° (ENE) 02:01:42
BUGSAT 1 24 Jan 02:00:38 02:04:55 87° 278° (W) 02:09:08 437.445
nSIGHT-1 24 Jan 02:04:35 02:07:33 35° 34° (NE) 02:10:30 .
NANOSAT C BR1 24 Jan 02:08:26 02:10:42 14° 294° (WNW) 02:12:56 145.865
AO-91 24 Jan 02:15:28 02:20:11 89° 282° (WNW) 02:25:20 145.960
UKube-1 24 Jan 02:29:13 02:33:28 66° 258° (WSW) 02:37:45 .
ISS 24 Jan 02:31:52 02:35:01 44° 36° (NE) 02:38:11 437.550
BEESAT 24 Jan 02:34:29 02:38:07 22° 67° (ENE) 02:41:44 436.000
50 SAT 24 Jan 02:36:04 02:38:33 22° 263° (W) 02:41:01 437.505
Oscar 19 24 Jan 02:39:23 02:44:31 68° 286° (WNW) 02:49:36 437.125/150
DX 1 24 Jan 02:49:37 02:53:03 23° 264° (W) 02:56:30 434.975-435.025
Gurwin Techsat 1B 24 Jan 02:52:56 02:58:13 69° 286° (WNW) 03:03:29 435.225
FALCONSAT 3 24 Jan 03:02:40 03:05:55 30° 160° (SSE) 03:09:10 435.103
MOZHAYETS 4 24 Jan 03:31:18 03:35:48 52° 260° (W) 03:40:22
ITUPSAT 1 24 Jan 03:33:29 03:38:16 88° 76° (ENE) 03:43:05 437.325
nSIGHT-1 24 Jan 03:41:10 03:43:31 19° 229° (SW) 03:45:53 .
CUBESAT XI-V 24 Jan 03:43:40 03:48:11 49° 73° (ENE) 03:52:42 437.345
ITAMSAT 1 24 Jan 03:53:34 03:58:04 29° 97° (E) 04:02:31 435.822/435.867
ISS 24 Jan 04:09:07 04:11:14 16° 231° (SW) 04:13:21 437.550
AO-7 24 Jan 04:10:53 04:19:14 67° 105° (ESE) 04:27:30 .
BEESAT 24 Jan 04:11:16 04:15:37 36° 262° (W) 04:20:01 436.000
SO-50 24 Jan 04:17:30 04:21:11 26° 112° (ESE) 04:24:55 436.795
KKS-1 24 Jan 04:35:20 04:38:53 24° 68° (ENE) 04:42:27 437.445
FALCONSAT 3 24 Jan 04:41:05 04:44:43 60° 175° (S) 04:48:21 435.103
STARS 24 Jan 04:43:33 04:44:45 11° 63° (ENE) 04:45:58 437.465
M-CUBED/EXP-1 PRIME 24 Jan 05:12:01 05:14:26 19° 101° (E) 05:16:49 437.505
CUBESAT XI-V 24 Jan 05:23:08 05:25:46 15° 268° (W) 05:28:26 437.345
ITAMSAT 1 24 Jan 05:32:54 05:37:27 31° 292° (WNW) 05:41:59 435.822/435.867
DOVE 4 24 Jan 05:45:45 05:50:11 70° 285° (WNW) 05:54:54 437.250
CUTE-I 24 Jan 05:53:28 05:56:34 15° 92° (E) 05:59:39 437.470
XW-2F 24 Jan 05:55:19 05:57:23 14° 93° (E) 05:59:26 145.980 - 146.000
SO-50 24 Jan 05:57:34 06:01:30 30° 309° (NW) 06:05:31 436.795
RS-15 24 Jan 06:02:54 06:09:46 17° 97° (E) 06:16:36 29.354- 29.394
AO-7 24 Jan 06:04:41 06:11:18 27° 303° (WNW) 06:17:54 .
XW-2D 24 Jan 06:07:25 06:10:28 23° 96° (E) 06:13:30 145.860 - 145.880
KKS-1 24 Jan 06:11:33 06:15:18 27° 263° (W) 06:19:05 437.445
HO-68 24 Jan 06:12:40 06:16:11 14° 90° (E) 06:19:42 435.675
STARS 24 Jan 06:16:11 06:20:30 64° 258° (WSW) 06:24:51 437.465
FALCONSAT 3 24 Jan 06:20:04 06:23:38 50° 191° (S) 06:27:12 435.103
XW-2B 24 Jan 06:24:48 06:28:18 37° 98° (E) 06:31:47 145.730 - 145.750
STRAND 1 24 Jan 06:31:42 06:35:49 25° 67° (ENE) 06:39:56 437.568
FO-29 24 Jan 06:42:31 06:46:46 19° 65° (ENE) 06:50:44 435.910
M-CUBED/EXP-1 PRIME 24 Jan 06:46:26 06:48:43 18° 296° (WNW) 06:50:59 437.505
XW-2C 24 Jan 06:55:12 06:58:57 79° 283° (WNW) 07:02:41 145.795 - 145.815
SEEDS 24 Jan 06:56:27 06:58:39 14° 92° (E) 07:00:51 437.485
LilacSat-2 24 Jan 06:57:48 07:01:33 66° 283° (WNW) 07:05:16 437.200
CUTE 1.7 + AOD 2 24 Jan 07:14:54 07:18:53 41° 98° (E) 07:22:50 437.475
KAITUO 1B 24 Jan 07:19:39 07:23:16 53° 285° (WNW) 07:26:50 145.475/437.950
NUDT-PHONESAT 24 Jan 07:23:44 07:27:18 50° 285° (WNW) 07:30:50 437.300
XW-2F 24 Jan 07:28:14 07:31:32 31° 288° (WNW) 07:34:49 145.980 - 146.000
CUTE-I 24 Jan 07:31:43 07:36:57 59° 287° (WNW) 07:42:10 437.470
XW-2D 24 Jan 07:41:44 07:44:28 19° 290° (WNW) 07:47:11 145.860 - 145.880
HO-68 24 Jan 07:57:30 08:04:41 89° 291° (WNW) 08:11:52 435.675
FALCONSAT 3 24 Jan 07:59:36 08:02:19 20° 205° (SSW) 08:05:02 435.103
XW-2B 24 Jan 08:00:23 08:02:06 13° 293° (WNW) 08:03:48 145.730 - 145.750
AAUSAT CUBESAT 2 24 Jan 08:00:40 08:04:21 32° 97° (E) 08:08:03 437.432
PCSat 24 Jan 08:01:56 08:02:31 10° 101° (ESE) 08:03:08 145.827
UWE-3 24 Jan 08:02:45 08:07:18 52° 99° (E) 08:11:45 435.000/436.395/437.385
BEESAT 3 24 Jan 08:04:38 08:06:36 13° 109° (ESE) 08:08:34 437.485
CUBEBUG 2 24 Jan 08:05:10 08:09:57 81° 284° (WNW) 08:14:39 437.445
RS-15 24 Jan 08:07:58 08:20:15 78° 116° (ESE) 08:32:27 29.354- 29.394
STRAND 1 24 Jan 08:10:11 08:14:47 35° 262° (W) 08:19:27 437.568
ZACube-1 24 Jan 08:18:07 08:22:20 37° 97° (E) 08:26:27 437.345
XW-2A 24 Jan 08:19:23 08:22:35 41° 99° (E) 08:25:44 145.665 - 145.685
AO-73 24 Jan 08:22:32 08:26:42 36° 97° (E) 08:30:45 145.935
UNISAT 6 24 Jan 08:24:12 08:25:49 12° 63° (ENE) 08:27:27 437.425
FO-29 24 Jan 08:24:37 08:31:25 67° 258° (WSW) 08:37:25 435.910
SEEDS 24 Jan 08:30:35 08:34:29 40° 287° (WNW) 08:38:21 437.485
YUBILEINY 24 Jan 08:31:19 08:34:08 12° 60° (ENE) 08:36:57 435.215
Oscar 11 24 Jan 08:51:25 08:55:35 46° 99° (E) 08:59:43 .
CUTE 1.7 + AOD 2 24 Jan 08:51:57 08:54:19 15° 293° (WNW) 08:56:42 437.475
BEESAT 2 24 Jan 09:01:38 09:03:51 14° 109° (ESE) 09:06:04 435.950
JUGNU 24 Jan 09:18:43 09:20:02 11° 171° (S) 09:21:22 437.505
Max Valier Satellite 24 Jan 09:29:47 09:31:07 12° 92° (E) 09:32:27 145.860
DELFI C3 24 Jan 09:36:36 09:39:52 24° 96° (E) 09:43:07 145.870
AAUSAT CUBESAT 2 24 Jan 09:36:47 09:39:32 18° 292° (WNW) 09:42:18 437.432
PCSat 24 Jan 09:39:40 09:45:05 88° 297° (WNW) 09:50:32 145.827
BEESAT 3 24 Jan 09:39:52 09:43:41 45° 304° (NW) 09:47:33 437.485
UWE-3 24 Jan 09:40:38 09:43:15 15° 295° (WNW) 09:45:50 435.000/436.395/437.385
TIGRISAT 24 Jan 09:41:05 09:45:30 76° 77° (ENE) 09:50:04 435.000
HO-68 24 Jan 09:47:22 09:51:25 16° 304° (NW) 09:55:28 435.675
ZACube-1 24 Jan 09:55:08 09:58:16 19° 293° (WNW) 10:01:22 437.345
O/OREOS (USA 219) 24 Jan 09:56:40 10:00:57 43° 65° (ENE) 10:05:14 437.305
UNISAT 6 24 Jan 09:57:30 10:01:54 64° 260° (W) 10:06:27 437.425
AO-73 24 Jan 09:59:26 10:02:36 19° 293° (WNW) 10:05:42 145.935
RS-15 24 Jan 10:23:05 10:34:00 35° 320° (NW) 10:44:45 29.354- 29.394
YUBILEINY 24 Jan 10:23:59 10:32:41 69° 81° (E) 10:41:19 435.215
Oscar 11 24 Jan 10:29:00 10:31:17 14° 294° (WNW) 10:33:34 .
PRISM 24 Jan 10:33:54 10:37:56 68° 75° (ENE) 10:41:57 437.425
BEESAT 2 24 Jan 10:37:20 10:41:09 42° 305° (NW) 10:45:02 435.950
AIST 2D 24 Jan 10:47:14 10:50:30 37° 74° (ENE) 10:53:46 435.315
Max Valier Satellite 24 Jan 11:01:39 11:05:04 37° 287° (WNW) 11:08:27 145.860
AO-85 24 Jan 11:02:25 11:06:00 35° 114° (ESE) 11:09:47 145.980
JUGNU 24 Jan 11:05:33 11:08:09 13° 181° (S) 11:10:45 437.505
POLYITAN 1 24 Jan 11:09:53 11:13:12 22° 69° (ENE) 11:16:31 437.675
EO-88 24 Jan 11:10:56 11:14:24 44° 286° (WNW) 11:17:51 145.990 - 145.960
DELFI C3 24 Jan 11:11:28 11:14:26 21° 290° (WNW) 11:17:24 145.870
NANOSAT C BR1 24 Jan 11:21:28 11:24:59 26° 70° (ENE) 11:28:32 145.865
PCSat 24 Jan 11:26:33 11:29:15 14° 316° (NW) 11:31:58 145.827
O/OREOS (USA 219) 24 Jan 11:37:22 11:39:56 15° 261° (W) 11:42:31 437.305
QB50P2 24 Jan 11:39:00 11:43:08 55° 74° (ENE) 11:47:18 145.880/145.840
ESTCUBE 1 24 Jan 11:40:50 11:44:53 32° 97° (E) 11:48:52 437.505/2401.250
DUCHIFAT 1 24 Jan 12:02:05 12:06:14 68° 76° (ENE) 12:10:27 145.980
EO-79 24 Jan 12:08:21 12:12:34 74° 259° (W) 12:16:49 145.935-145.965
Oscar 19 24 Jan 12:17:11 12:20:25 17° 64° (ENE) 12:23:41 437.125/150
LO-87 24 Jan 12:17:28 12:21:02 58° 284° (WNW) 12:24:35 145.935 - 145.965
YUBILEINY 24 Jan 12:22:22 12:28:34 22° 279° (W) 12:34:47 435.215
AIST 2D 24 Jan 12:23:03 12:23:48 10° 268° (W) 12:24:31 435.315
SPROUT 24 Jan 12:25:53 12:29:17 22° 95° (E) 12:32:40 437.525
Gurwin Techsat 1B 24 Jan 12:34:12 12:37:49 19° 64° (ENE) 12:41:26 435.225
AO-85 24 Jan 12:43:34 12:46:31 19° 313° (NW) 12:49:38 145.980
RS-15 24 Jan 12:44:43 12:51:49 17° 354° (N) 12:58:47 29.354- 29.394
POLYITAN 1 24 Jan 12:45:10 12:48:47 27° 264° (W) 12:52:27 437.675
BUGSAT 1 24 Jan 12:48:00 12:51:54 46° 73° (ENE) 12:55:54 437.445
SO-50 24 Jan 12:50:20 12:53:31 18° 46° (NE) 12:56:44 436.795
NANOSAT C BR1 24 Jan 12:57:16 13:00:37 23° 265° (W) 13:04:00 145.865
VELOX 1 24 Jan 12:59:15 13:03:03 28° 97° (E) 13:06:50 145.980
AO-91 24 Jan 13:11:50 13:15:05 49° 74° (ENE) 13:18:30 145.960
ESTCUBE 1 24 Jan 13:18:05 13:21:26 21° 292° (WNW) 13:24:47 437.505/2401.250
QB50P2 24 Jan 13:18:08 13:19:13 11° 269° (W) 13:20:17 145.880/145.840
AO-7 24 Jan 13:19:34 13:24:13 16° 51° (NE) 13:28:52 .
SRMSAT 24 Jan 13:21:33 13:24:15 13° 176° (S) 13:26:57 437.500
50 SAT 24 Jan 13:52:41 13:54:07 12° 94° (E) 13:55:31 437.505
Oscar 19 24 Jan 13:54:08 13:59:14 57° 259° (W) 14:04:22 437.125/150
SPROUT 24 Jan 14:01:27 14:05:06 27° 290° (WNW) 14:08:44 437.525
Gurwin Techsat 1B 24 Jan 14:12:10 14:17:19 52° 260° (W) 14:22:30 435.225
UKube-1 24 Jan 14:18:32 14:21:55 22° 96° (E) 14:25:18 .
BUGSAT 1 24 Jan 14:25:55 14:27:30 12° 268° (W) 14:29:06 437.445
SO-50 24 Jan 14:29:41 14:34:21 59° 243° (WSW) 14:39:02 436.795
VELOX 1 24 Jan 14:35:50 14:39:20 24° 291° (WNW) 14:42:50 145.980
DX 1 24 Jan 14:38:23 14:42:43 68° 103° (ESE) 14:47:02 434.975-435.025
RS-15 24 Jan 15:01:11 15:10:31 25° 30° (NNE) 15:19:27 29.354- 29.394
AO-7 24 Jan 15:07:17 15:15:36 76° 69° (ENE) 15:23:58 .
ITAMSAT 1 24 Jan 15:09:34 15:14:15 37° 70° (ENE) 15:18:58 435.822/435.867
SRMSAT 24 Jan 15:10:15 15:12:33 12° 187° (S) 15:14:52 437.500
50 SAT 24 Jan 15:23:15 15:25:46 23° 288° (WNW) 15:28:18 437.505
MOZHAYETS 4 24 Jan 15:28:10 15:32:31 40° 98° (E) 15:36:50
ITUPSAT 1 24 Jan 15:36:22 15:40:24 26° 96° (E) 15:44:22 437.325
CUBESAT XI-V 24 Jan 15:43:42 15:46:00 14° 91° (E) 15:48:19 437.345
